Torna al catalogo

USA 442

AttivoMilitareVLEO
NORAD 62341·PAYLOAD·🇺🇸 United States

Lanciato Dec 17, 2024 da Vandenberg Space Force Base

Loading…

Prossimi Passaggi (prossime 24 ore)

TLE

ObsoletoSource: Mike McCants

Epoca: Aug 12, 2026, 22:24 UTC

1 62341U 24243B   26224.93351613 0.00000000  00000-0  00000-0 0    01
2 62341  70.0220 154.5568 0003000 139.2495 220.7505 14.96713063    00

Traccia USA 442 in tempo reale con AllMySat

Download on the App Store